Time,TemperatureF,DewpointF,PressureIn,WindDirection,WindDirectionDegrees,WindSpeedMPH,WindSpeedGustMPH,Humidity,HourlyPrecipIn,Conditions,Clouds,dailyrainin,SoftwareType,DateUTC
2013-06-28 00:00:00,65.4,62.1,29.96,SSE,158,0.6,0.0,89,0.00,,FEW028,0.00,VWS V13.01,2013-06-27 14:00:00,
2013-06-28 00:15:00,65.2,62.2,29.96,SSE,158,0.6,0.0,90,0.00,,FEW028,0.00,VWS V13.01,2013-06-27 14:15:00,
2013-06-28 00:30:00,65.2,61.9,29.96,SSE,158,0.6,0.0,89,0.00,,FEW028,0.00,VWS V13.01,2013-06-27 14:30:00,
2013-06-28 00:45:00,65.0,62.0,29.96,SSE,158,0.6,0.0,90,0.00,,FEW028,0.00,VWS V13.01,2013-06-27 14:45:00,
2013-06-28 01:00:00,64.9,61.9,29.96,SSE,158,0.6,0.0,90,0.00,,FEW028,0.00,VWS V13.01,2013-06-27 15:00:00,
2013-06-28 01:15:00,65.1,62.1,29.96,SSE,158,0.6,0.0,90,0.00,,FEW028,0.00,VWS V13.01,2013-06-27 15:15:00,
2013-06-28 01:30:00,65.7,62.4,29.96,SSE,158,0.6,0.0,89,0.00,,FEW028,0.00,VWS V13.01,2013-06-27 15:30:00,
2013-06-28 01:45:00,66.2,62.5,29.96,SSE,158,0.6,0.0,88,0.00,,FEW028,0.00,VWS V13.01,2013-06-27 15:45:00,
2013-06-28 02:00:00,66.4,62.7,29.96,SSE,158,0.6,0.0,88,0.00,,FEW028,0.00,VWS V13.01,2013-06-27 16:00:00,
2013-06-28 02:15:00,66.3,62.6,29.95,SSE,158,0.6,0.0,88,0.00,,FEW028,0.00,VWS V13.01,2013-06-27 16:15:00,
2013-06-28 02:30:00,65.7,62.4,29.96,SSE,158,0.6,0.0,89,0.00,,FEW028,0.00,VWS V13.01,2013-06-27 16:30:00,
2013-06-28 02:45:00,65.0,62.0,29.96,SSE,158,0.6,0.0,90,0.00,,FEW028,0.00,VWS V13.01,2013-06-27 16:45:00,
2013-06-28 03:00:00,64.6,61.6,29.95,SSE,158,0.6,1.3,90,0.00,,FEW028,0.00,VWS V13.01,2013-06-27 17:00:00,
2013-06-28 03:15:00,64.8,62.1,29.95,SSE,158,0.6,0.0,91,0.00,,FEW028,0.00,VWS V13.01,2013-06-27 17:15:00,
2013-06-28 03:30:00,65.4,62.4,29.95,SSE,158,0.6,1.3,90,0.00,,FEW028,0.00,VWS V13.01,2013-06-27 17:30:00,
2013-06-28 03:45:00,66.3,62.6,29.94,SE,135,0.6,3.8,88,0.00,,FEW028,0.00,VWS V13.01,2013-06-27 17:45:00,
2013-06-28 04:00:00,67.1,62.5,29.94,SE,135,0.6,2.5,85,0.00,,FEW028,0.00,VWS V13.01,2013-06-27 18:00:00,
2013-06-28 04:15:00,67.7,62.7,29.94,SE,135,0.6,2.5,84,0.00,,FEW028,0.00,VWS V13.01,2013-06-27 18:15:00,
2013-06-28 04:30:00,68.1,62.8,29.94,SE,135,0.6,2.5,83,0.00,,FEW028,0.00,VWS V13.01,2013-06-27 18:30:00,
2013-06-28 04:45:00,68.2,62.8,29.95,SE,135,0.6,2.5,83,0.00,,FEW028,0.00,VWS V13.01,2013-06-27 18:45:00,
2013-06-28 05:00:00,68.2,62.8,29.94,SE,135,0.6,1.3,83,0.00,,FEW028,0.00,VWS V13.01,2013-06-27 19:00:00,
2013-06-28 05:15:00,68.2,62.8,29.94,SE,135,0.6,1.3,83,0.00,,FEW028,0.00,VWS V13.01,2013-06-27 19:15:00,
2013-06-28 05:30:00,68.3,62.6,29.95,SE,135,0.6,1.3,82,0.00,,FEW028,0.00,VWS V13.01,2013-06-27 19:30:00,
2013-06-28 05:45:00,68.3,62.6,29.95,SE,135,0.6,0.0,82,0.00,,FEW028,0.00,VWS V13.01,2013-06-27 19:45:00,
2013-06-28 06:00:00,68.2,62.5,29.95,SE,135,0.6,2.5,82,0.00,,FEW028,0.00,VWS V13.01,2013-06-27 20:00:00,
2013-06-28 06:15:00,68.4,62.7,29.95,SE,135,0.6,1.3,82,0.00,,FEW028,0.00,VWS V13.01,2013-06-27 20:15:00,
2013-06-28 06:30:00,68.5,63.1,29.96,SE,135,0.6,1.3,83,0.00,,FEW028,0.00,VWS V13.01,2013-06-27 20:30:00,
2013-06-28 06:45:00,68.5,63.1,29.97,SE,135,0.6,0.0,83,0.00,,FEW028,0.00,VWS V13.01,2013-06-27 20:45:00,
2013-06-28 07:00:00,68.5,63.1,29.97,SE,135,1.9,2.5,83,0.00,,FEW028,0.00,VWS V13.01,2013-06-27 21:00:00,
2013-06-28 07:15:00,68.5,63.1,29.97,SE,135,1.9,2.5,83,0.00,,FEW028,0.00,VWS V13.01,2013-06-27 21:15:00,
2013-06-28 07:30:00,68.7,63.0,29.98,SE,135,0.6,2.5,82,0.00,,FEW028,0.00,VWS V13.01,2013-06-27 21:30:00,
2013-06-28 07:49:00,69.2,63.1,29.99,SE,135,0.6,2.5,81,0.00,,FEW028,0.00,VWS V13.01,2013-06-27 21:49:00,
2013-06-28 07:55:00,69.8,63.7,29.99,SE,135,0.6,2.5,81,0.00,,FEW028,0.00,VWS V13.01,2013-06-27 21:55:00,
2013-06-28 08:00:00,70.0,63.9,29.99,SE,135,0.6,2.5,81,0.00,,FEW028,0.00,VWS V13.01,2013-06-27 22:00:00,
2013-06-28 08:05:00,70.4,63.9,29.99,SE,142,1.9,2.5,80,0.00,,BKN035,0.00,VWS V13.01,2013-06-27 22:05:00,
2013-06-28 08:10:00,70.9,64.1,29.99,SSE,148,0.6,2.5,79,0.00,,BKN035,0.00,VWS V13.01,2013-06-27 22:10:00,
2013-06-28 08:15:00,71.8,64.2,29.99,SE,141,3.1,3.1,77,0.00,,SCT040,0.00,VWS V13.01,2013-06-27 22:15:00,
2013-06-28 08:20:00,72.3,63.9,29.99,ESE,123,6.9,6.9,75,0.00,,SCT040,0.00,VWS V13.01,2013-06-27 22:20:00,
2013-06-28 08:25:00,72.7,63.9,29.99,SE,138,1.9,2.5,74,0.00,,SCT040,0.00,VWS V13.01,2013-06-27 22:25:00,
2013-06-28 08:31:00,72.7,63.9,29.99,SSE,148,3.1,3.1,74,0.01,,SCT040,0.01,VWS V13.01,2013-06-27 22:31:00,
2013-06-28 08:45:00,73.0,63.8,29.99,SE,135,3.1,6.2,73,0.02,,SCT040,0.02,VWS V13.01,2013-06-27 22:45:00,
2013-06-28 09:00:00,74.0,64.0,29.99,SE,135,3.1,7.5,71,0.02,,SCT040,0.02,VWS V13.01,2013-06-27 23:00:00,
2013-06-28 09:15:00,74.5,64.1,29.99,SE,135,1.9,5.0,70,0.02,,SCT040,0.02,VWS V13.01,2013-06-27 23:15:00,
2013-06-28 09:30:00,75.5,64.6,29.99,SE,135,1.9,6.2,69,0.02,,SCT040,0.02,VWS V13.01,2013-06-27 23:30:00,
2013-06-28 09:45:00,76.2,64.0,29.98,SE,135,3.1,6.2,66,0.02,,SCT040,0.02,VWS V13.01,2013-06-27 23:45:00,
2013-06-28 10:00:00,76.8,64.6,29.98,SE,135,3.1,8.7,66,0.00,,SCT040,0.02,VWS V13.01,2013-06-28 00:00:00,
2013-06-28 10:15:00,77.0,64.3,29.98,SE,135,4.4,10.0,65,0.00,,SCT040,0.02,VWS V13.01,2013-06-28 00:15:00,
2013-06-28 10:30:00,77.4,63.8,29.98,SE,135,4.4,11.3,63,0.00,,SCT040,0.02,VWS V13.01,2013-06-28 00:30:00,
2013-06-28 10:45:00,77.6,64.0,29.98,SE,135,4.4,11.3,63,0.00,,SCT040,0.02,VWS V13.01,2013-06-28 00:45:00,
2013-06-28 11:00:00,78.1,64.0,29.97,SE,135,4.4,10.0,62,0.00,,SCT040,0.02,VWS V13.01,2013-06-28 01:00:00,
2013-06-28 11:15:00,78.2,65.5,29.96,SE,135,4.4,10.0,65,0.00,,SCT040,0.02,VWS V13.01,2013-06-28 01:15:00,
2013-06-28 11:30:00,77.8,65.1,29.96,East,90,6.9,13.7,65,0.00,,SCT040,0.02,VWS V13.01,2013-06-28 01:30:00,
2013-06-28 11:45:00,77.4,65.2,29.95,East,90,6.9,16.3,66,0.00,,SCT040,0.02,VWS V13.01,2013-06-28 01:45:00,
2013-06-28 12:00:00,77.0,65.6,29.95,East,90,6.9,13.7,68,0.00,,SCT040,0.02,VWS V13.01,2013-06-28 02:00:00,
2013-06-28 12:15:00,77.1,64.9,29.94,ESE,112,5.6,13.7,66,0.00,,SCT040,0.02,VWS V13.01,2013-06-28 02:15:00,
2013-06-28 12:30:00,77.1,65.3,29.94,East,90,5.6,12.5,67,0.00,,SCT040,0.02,VWS V13.01,2013-06-28 02:30:00,
2013-06-28 12:45:00,77.3,65.5,29.93,ESE,112,5.6,11.3,67,0.00,,SCT040,0.02,VWS V13.01,2013-06-28 02:45:00,
2013-06-28 13:00:00,77.5,65.7,29.93,SE,135,5.6,13.7,67,0.00,,SCT040,0.02,VWS V13.01,2013-06-28 03:00:00,
2013-06-28 13:15:00,77.3,65.9,29.92,SE,135,5.6,15.0,68,0.00,,SCT040,0.02,VWS V13.01,2013-06-28 03:15:00,
2013-06-28 13:30:00,76.9,65.5,29.92,ESE,112,5.6,15.0,68,0.00,,SCT040,0.02,VWS V13.01,2013-06-28 03:30:00,
2013-06-28 13:45:00,76.8,65.0,29.91,ESE,112,6.9,13.7,67,0.00,,SCT040,0.02,VWS V13.01,2013-06-28 03:45:00,
2013-06-28 14:00:00,77.1,65.7,29.91,ESE,112,5.6,15.0,68,0.00,,SCT040,0.02,VWS V13.01,2013-06-28 04:00:00,
2013-06-28 14:15:00,76.9,66.0,29.91,ESE,112,6.9,15.0,69,0.00,,SCT040,0.02,VWS V13.01,2013-06-28 04:15:00,
2013-06-28 14:30:00,76.6,65.7,29.91,East,90,5.6,13.7,69,0.00,,SCT040,0.02,VWS V13.01,2013-06-28 04:30:00,
2013-06-28 14:45:00,76.6,65.7,29.90,ESE,112,5.6,15.0,69,0.00,,SCT040,0.02,VWS V13.01,2013-06-28 04:45:00,
2013-06-28 15:00:00,76.2,66.1,29.90,East,90,6.9,15.0,71,0.00,,SCT040,0.02,VWS V13.01,2013-06-28 05:00:00,
2013-06-28 15:15:00,76.1,66.0,29.90,East,90,6.9,15.0,71,0.00,,SCT040,0.02,VWS V13.01,2013-06-28 05:15:00,
2013-06-28 15:30:00,75.9,66.2,29.91,ESE,112,6.9,13.7,72,0.00,,SCT040,0.02,VWS V13.01,2013-06-28 05:30:00,
2013-06-28 15:45:00,76.0,66.3,29.91,ESE,112,5.6,15.0,72,0.00,,SCT040,0.02,VWS V13.01,2013-06-28 05:45:00,
2013-06-28 16:00:00,75.7,65.6,29.91,East,90,5.6,15.0,71,0.00,,SCT040,0.02,VWS V13.01,2013-06-28 06:00:00,
2013-06-28 16:15:00,75.9,65.4,29.91,SE,135,5.6,13.7,70,0.00,,SCT040,0.02,VWS V13.01,2013-06-28 06:15:00,
2013-06-28 16:30:00,75.2,65.2,29.91,SE,135,5.6,15.0,71,0.00,,SCT040,0.02,VWS V13.01,2013-06-28 06:30:00,
2013-06-28 16:45:00,74.3,64.7,29.92,SE,135,5.6,11.3,72,0.00,,SCT040,0.02,VWS V13.01,2013-06-28 06:45:00,
2013-06-28 17:00:00,74.1,64.9,29.93,SE,135,4.4,8.7,73,0.00,,SCT040,0.02,VWS V13.01,2013-06-28 07:00:00,
2013-06-28 17:15:00,73.9,65.1,29.94,SE,135,4.4,13.7,74,0.00,,SCT040,0.02,VWS V13.01,2013-06-28 07:15:00,
2013-06-28 17:30:00,73.6,65.2,29.94,SE,135,4.4,11.3,75,0.00,,SCT040,0.02,VWS V13.01,2013-06-28 07:30:00,
2013-06-28 17:45:00,73.3,64.5,29.95,SE,135,3.1,11.3,74,0.00,,SCT040,0.02,VWS V13.01,2013-06-28 07:45:00,
2013-06-28 18:00:00,73.1,64.3,29.96,SE,135,4.4,12.5,74,0.00,,SCT040,0.02,VWS V13.01,2013-06-28 08:00:00,
2013-06-28 18:15:00,72.9,64.5,29.97,SE,135,4.4,11.3,75,0.00,,SCT040,0.02,VWS V13.01,2013-06-28 08:15:00,
2013-06-28 18:30:00,72.8,64.4,29.97,SE,135,3.1,8.7,75,0.00,,SCT040,0.02,VWS V13.01,2013-06-28 08:30:00,
2013-06-28 18:45:00,72.6,64.2,29.97,SE,135,3.1,10.0,75,0.00,,SCT040,0.02,VWS V13.01,2013-06-28 08:45:00,
2013-06-28 19:00:00,72.5,64.1,29.98,SE,135,3.1,12.5,75,0.00,,SCT040,0.02,VWS V13.01,2013-06-28 09:00:00,
2013-06-28 19:15:00,72.2,64.6,29.98,SE,135,1.9,5.0,77,0.00,,SCT040,0.02,VWS V13.01,2013-06-28 09:15:00,
2013-06-28 19:30:00,71.7,64.1,29.99,SE,135,0.6,3.8,77,0.00,,SCT040,0.02,VWS V13.01,2013-06-28 09:30:00,
2013-06-28 19:45:00,71.2,64.4,29.99,SE,135,0.6,0.0,79,0.00,,SCT040,0.02,VWS V13.01,2013-06-28 09:45:00,
2013-06-28 20:00:00,70.4,63.9,29.99,SE,135,0.6,0.0,80,0.00,,SCT040,0.02,VWS V13.01,2013-06-28 10:00:00,
2013-06-28 20:15:00,69.6,63.9,30.00,SE,135,0.6,0.0,82,0.00,,SCT040,0.02,VWS V13.01,2013-06-28 10:15:00,
2013-06-28 20:30:00,69.4,64.4,30.00,SE,135,0.6,0.0,84,0.00,,SCT040,0.02,VWS V13.01,2013-06-28 10:30:00,
2013-06-28 20:45:00,69.1,64.1,30.00,SE,135,0.6,0.0,84,0.00,,SCT040,0.02,VWS V13.01,2013-06-28 10:45:00,
2013-06-28 21:00:00,68.6,63.9,30.01,SE,135,0.6,0.0,85,0.00,,SCT040,0.02,VWS V13.01,2013-06-28 11:00:00,
2013-06-28 21:15:00,68.2,63.9,30.01,SSE,158,0.6,1.3,86,0.00,,SCT040,0.02,VWS V13.01,2013-06-28 11:15:00,
2013-06-28 21:30:00,68.0,63.7,30.02,SSE,158,0.6,0.0,86,0.00,,SCT040,0.02,VWS V13.01,2013-06-28 11:30:00,
2013-06-28 21:45:00,67.5,63.5,30.03,SSE,158,0.6,0.0,87,0.00,,SCT040,0.02,VWS V13.01,2013-06-28 11:45:00,
2013-06-28 22:00:00,67.0,63.3,30.03,SSE,158,0.6,0.0,88,0.00,,SCT040,0.02,VWS V13.01,2013-06-28 12:00:00,
2013-06-28 22:15:00,66.6,63.3,30.03,SSE,158,0.6,0.0,89,0.00,,SCT040,0.02,VWS V13.01,2013-06-28 12:15:00,
2013-06-28 22:30:00,66.5,63.5,30.03,SSE,158,0.6,0.0,90,0.00,,SCT040,0.02,VWS V13.01,2013-06-28 12:30:00,
2013-06-28 22:45:00,66.3,63.3,30.02,SSE,158,0.6,0.0,90,0.00,,SCT040,0.02,VWS V13.01,2013-06-28 12:45:00,
2013-06-28 23:00:00,66.0,63.0,30.02,SSE,158,0.6,0.0,90,0.00,,SCT040,0.02,VWS V13.01,2013-06-28 13:00:00,
2013-06-28 23:15:00,65.7,62.7,30.01,SSE,158,0.6,0.0,90,0.00,,SCT040,0.02,VWS V13.01,2013-06-28 13:15:00,
2013-06-28 23:30:00,65.4,62.7,30.01,SSE,158,0.6,0.0,91,0.00,,SCT040,0.02,VWS V13.01,2013-06-28 13:30:00,
2013-06-28 23:45:00,65.1,62.4,30.01,SSE,158,0.6,0.0,91,0.00,,SCT040,0.02,VWS V13.01,2013-06-28 13:45:00,